This demonstration page uses our WeatherBlox Daily Observations layout. Learn more.

Left ArrowRight Arrow

41.86663, -103.66717

Hourly Observations for March 8, 2021

Temp ( °F °C ) Dew Point ( °F °C ) Humidity (%) Winds ( mph kmh ) Pressure ( in mb ) Visibility ( mi km ) Precip ( " mm )
12:53 am 00:53 Clear 39 3.9 24 -4.4 55 55 E 7 11 30.02 1017 10 16.0934 0 0
1:53 am 01:53 Clear 37 2.8 24 -4.4 59 59 ESE 6 9 30.02 1017 10 16.0934 0 0
2:53 am 02:53 Clear 35 1.7 23 -5 61 61 ESE 5 7 30.01 1016 10 16.0934 0 0
3:53 am 03:53 Clear 32 0 23 -5 69 69 ESE 7 11 30 1016 10 16.0934 0 0
4:53 am 04:53 Clear 35 1.7 23 -5 61 61 Calm 30.01 1016 10 16.0934 0 0
5:53 am 05:53 Clear 32 0 23 -5 69 69 ENE 3 6 30.04 1017 10 16.0934 0 0
6:53 am 06:53 Sunny 31 -0.6 23 -5 72 72 N 3 6 30.06 1018 10 16.0934 0 0
7:53 am 07:53 Sunny 33 0.6 25 -3.9 72 72 NW 3 6 30.08 1019 10 16.0934 0 0
8:53 am 08:53 Sunny 37 2.8 26 -3.3 65 65 undefined N/A 30.05 1018 10 16.0934 0 0
9:53 am 09:53 Sunny 42 5.6 28 -2.2 58 58 undefined N/A 30.03 1017 10 16.0934 0 0
10:53 am 10:53 Sunny 45 7.2 29 -1.7 54 54 undefined N/A 30.02 1017 10 16.0934 0 0
11:53 am 11:53 Sunny 49 9.4 27 -2.8 43 43 undefined N/A 29.98 1015 10 16.0934 0 0
12:53 pm 12:53 Sunny 56 13.3 27 -2.8 33 33 E 7 11 29.89 1012 10 16.0934 0 0
1:53 pm 13:53 Sunny 59 15 28 -2.2 31 31 undefined N/A 29.87 1012 10 16.0934 0 0
2:53 pm 14:53 Sunny 63 17.2 28 -2.2 27 27 undefined N/A 29.85 1011 10 16.0934 0 0
3:53 pm 15:53 Sunny 67 19.4 28 -2.2 23 23 undefined N/A 29.82 1010 10 16.0934 0 0
4:53 pm 16:53 Sunny 66 18.9 25 -3.9 21 21 undefined N/A 29.8 1009 10 16.0934 0 0
5:53 pm 17:53 Sunny 53 11.7 26 -3.3 35 35 undefined N/A 29.83 1010 10 16.0934 0 0
6:53 pm 18:53 Clear 44 6.7 25 -3.9 47 47 E 9 15 29.88 1012 9 14.48406 0 0
7:53 pm 19:53 Clear 43 6.1 25 -3.9 49 49 ESE 6 9 29.89 1012 10 16.0934 0 0
8:53 pm 20:53 Clear 40 4.4 25 -3.9 55 55 ENE 6 9 29.89 1012 10 16.0934 0 0
9:53 pm 21:53 Clear 40 4.4 26 -3.3 58 58 NNE 7 11 29.87 1012 10 16.0934 0 0
10:53 pm 22:53 Clear 36 2.2 24 -4.4 62 62 E 7 11 29.87 1012 10 16.0934 0 0
11:53 pm 23:53 Clear 37 2.8 25 -3.9 62 62 ENE 9 15 29.84 1011 10 16.0934 0 0

Powered by AerisWeather